This demonstration page uses our WeatherBlox Daily Observations layout. Learn more.

Left ArrowRight Arrow

39.95238, -75.16362

Hourly Observations for August 19, 2016

Temp ( °F °C ) Dew Point ( °F °C ) Humidity (%) Winds ( mph kmh ) Pressure ( in mb ) Visibility ( mi km ) Precip ( " mm )
12:03 am 00:03 Cloudy 74 23.3 71 21.7 91 91 E 9 15 29.97 1015 10 16 0.00 0.00
12:54 am 00:54 Mostly Cloudy 75 23.9 70 21.1 84 84 SSW 9 15 29.96 1015 10 16 0.00 0.00
1:54 am 01:54 Mostly Cloudy 74 23.3 70 21.1 88 88 W 6 9 29.95 1014 10 16 0.00 0.00
2:54 am 02:54 Mostly Cloudy 74 23.3 71 21.7 91 91 NNW 5 7 29.94 1014 9 14 0.00 0.00
3:54 am 03:54 Partly Cloudy 74 23.3 70 21.1 88 88 Calm 29.94 1014 10 16 0.00 0.00
4:54 am 04:54 Mostly Clear 74 23.3 69 20.6 85 85 WNW 5 7 29.95 1014 10 16 0.00 0.00
5:54 am 05:54 Mostly Clear 74 23.3 68 20 82 82 NW 6 9 29.95 1014 10 16 0.00 0.00
6:54 am 06:54 Mostly Sunny 73 22.8 68 20 84 84 N 5 7 29.96 1015 10 16 0.00 0.00
7:54 am 07:54 Mostly Sunny 75 23.9 68 20 79 79 VRB 6 9 29.97 1015 10 16 0.00 0.00
8:54 am 08:54 Mostly Sunny 78 25.6 68 20 71 71 VRB 6 9 29.97 1015 10 16 0.00 0.00
9:54 am 09:54 Partly Cloudy 82 27.8 68 20 63 63 NNE 8 13 29.96 1015 10 16 0.00 0.00
10:54 am 10:54 Mostly Sunny 83 28.3 68 20 61 61 N 8 13 29.96 1014 10 16 0.00 0.00
11:54 am 11:54 Mostly Cloudy 86 30 68 20 55 55 VRB 3 6 29.95 1014 10 16 0.00 0.00
12:54 pm 12:54 Partly Cloudy 90 32 68 20 49 49 VRB 5 7 29.94 1014 10 16 0.00 0.00
1:54 pm 13:54 Mostly Cloudy 86 30 66 18.9 51 51 S 6 9 29.93 1014 10 16 0.00 0.00
2:54 pm 14:54 Mostly Cloudy 88 31.1 65 18.3 46 46 WNW 5 7 29.92 1013 10 16 0.00 0.00
3:54 pm 15:54 Mostly Cloudy 89 31.7 62 16.7 41 41 Calm 29.90 1013 10 16 0.00 0.00
4:54 pm 16:54 Mostly Cloudy 90 32.2 61 16.1 38 38 NW 8 13 29.89 1012 10 16 0.00 0.00
5:54 pm 17:54 Mostly Cloudy 90 32.2 63 17.2 41 41 W 9 15 29.88 1012 10 16 0.00 0.00
6:54 pm 18:54 Mostly Cloudy 89 31.7 61 16.1 39 39 NW 9 15 29.88 1012 10 16 0.00 0.00
7:54 pm 19:54 Mostly Cloudy 87 30.6 60 15.6 40 40 WNW 9 15 29.88 1012 10 16 0.00 0.00
8:54 pm 20:54 Partly Cloudy 81 27.2 71 21.7 72 72 ENE 8 13 29.90 1013 10 16 0.00 0.00
9:54 pm 21:54 Partly Cloudy 79 26.1 72 22.2 79 79 E 5 7 29.92 1013 10 16 0.00 0.03
10:54 pm 22:54 Partly Cloudy 77 25 71 21.7 82 82 ENE 3 6 29.92 1013 10 16 0.00 0.00
11:54 pm 23:54 Partly Cloudy 77 25 71 21.7 82 82 ESE 5 7 29.92 1013 10 16 0.00 0.00

Powered by AerisWeather